When you browse on this site, cookies collect data to enhance your experience and personalize the content and advertising you see.
Visit our Privacy Policy to learn more. By continuing to use the site, you agree to this use of cookies and data.
  • In Spain
  • List of Countries
  • For 7 days
  • Water Temperature
  • Weather Map
  • Weather Widgets
  • user-avatar
    Login

    Hourly Weather Panguipulli

    Today, 28 January, Tuesday

    Time Temperature Precipitation Wind Pressure Humidity
    00:00 +14°C° 0.1 mm 0 mps 742 mmHg 94%
    01:00 +15°C° 0.1 mm 0 mps 742 mmHg 94%
    02:00 +16°C° 0.2 mm 1 mps 741 mmHg 95%
    03:00 +16°C° 0.2 mm 1 mps 741 mmHg 96%
    04:00 +16°C° 0.2 mm 1 mps 741 mmHg 97%
    05:00 +16°C° 0.3 mm 1 mps 741 mmHg 97%
    06:00 +16°C° 0.3 mm 1 mps 741 mmHg 98%
    07:00 +16°C° 0.3 mm 1 mps 740 mmHg 98%
    08:00 +16°C° 0.2 mm 1 mps 741 mmHg 94%
    09:00 +18°C° 0.2 mm 1 mps 741 mmHg 89%
    10:00 +18°C° 0.2 mm 2 mps 742 mmHg 85%
    11:00 +20°C° 0.1 mm 2 mps 742 mmHg 72%
    12:00 +21°C° 0.1 mm 2 mps 742 mmHg 58%
    13:00 +24°C° 0.1 mm 2 mps 742 mmHg 45%
    14:00 +24°C° 0 mm 2 mps 742 mmHg 45%
    15:00 +22°C° 0 mm 3 mps 742 mmHg 44%
    16:00 +22°C° 0 mm 3 mps 742 mmHg 44%
    17:00 +20°C° 0 mm 2 mps 742 mmHg 49%
    18:00 +18°C° 0 mm 2 mps 743 mmHg 55%
    19:00 +16°C° 0 mm 1 mps 743 mmHg 60%
    20:00 +15°C° 0 mm 1 mps 744 mmHg 66%
    21:00 +13°C° 0 mm 1 mps 744 mmHg 72%
    22:00 +11°C° 0 mm 1 mps 744 mmHg 78%
    23:00 +10°C° 0 mm 1 mps 744 mmHg 83%

    Tomorrow, 29 January, Wednesday

    Time Temperature Precipitation Wind Pressure Humidity
    00:00 +9°C° 0 mm 1 mps 744 mmHg 88%
    01:00 +8°C° 0 mm 1 mps 745 mmHg 92%
    02:00 +7°C° 0 mm 1 mps 745 mmHg 94%
    03:00 +7°C° 0 mm 1 mps 745 mmHg 95%
    04:00 +6°C° 0 mm 1 mps 745 mmHg 97%
    05:00 +8°C° 0 mm 1 mps 745 mmHg 89%
    06:00 +9°C° 0 mm 1 mps 745 mmHg 80%
    07:00 +11°C° 0 mm 1 mps 745 mmHg 72%
    08:00 +13°C° 0 mm 1 mps 745 mmHg 62%
    09:00 +16°C° 0 mm 1 mps 745 mmHg 52%
    10:00 +18°C° 0 mm 2 mps 744 mmHg 41%
    11:00 +20°C° 0 mm 2 mps 744 mmHg 38%
    12:00 +21°C° 0 mm 2 mps 744 mmHg 34%
    13:00 +24°C° 0 mm 2 mps 744 mmHg 30%
    14:00 +24°C° 0 mm 2 mps 744 mmHg 29%
    15:00 +24°C° 0 mm 2 mps 743 mmHg 29%
    16:00 +24°C° 0 mm 2 mps 743 mmHg 28%
    17:00 +21°C° 0 mm 2 mps 744 mmHg 34%
    18:00 +19°C° 0 mm 1 mps 744 mmHg 41%
    19:00 +15°C° 0 mm 1 mps 744 mmHg 47%
    20:00 +14°C° 0 mm 1 mps 744 mmHg 52%
    21:00 +12°C° 0 mm 1 mps 745 mmHg 56%
    22:00 +10°C° 0 mm 1 mps 745 mmHg 61%
    23:00 +8°C° 0 mm 0 mps 745 mmHg 64%

    Day after tomorrow, 30 January, Thursday

    Time Temperature Precipitation Wind Pressure Humidity
    00:00 +8°C° 0 mm 0 mps 745 mmHg 68%
    01:00 +7°C° 0 mm 0 mps 744 mmHg 71%
    02:00 +7°C° 0 mm 0 mps 744 mmHg 73%
    03:00 +6°C° 0 mm 0 mps 744 mmHg 74%
    04:00 +6°C° 0 mm 0 mps 744 mmHg 76%
    05:00 +8°C° 0 mm 0 mps 744 mmHg 68%
    06:00 +10°C° 0 mm 0 mps 744 mmHg 60%
    07:00 +12°C° 0 mm 0 mps 744 mmHg 52%
    08:00 +16°C° 0 mm 1 mps 744 mmHg 44%
    09:00 +20°C° 0 mm 1 mps 743 mmHg 37%
    10:00 +23°C° 0 mm 1 mps 743 mmHg 29%
    11:00 +25°C° 0 mm 2 mps 743 mmHg 28%
    12:00 +26°C° 0 mm 2 mps 743 mmHg 28%
    13:00 +28°C° 0 mm 2 mps 742 mmHg 28%
    14:00 +28°C° 0 mm 2 mps 742 mmHg 30%
    15:00 +28°C° 0 mm 2 mps 742 mmHg 32%
    16:00 +29°C° 0 mm 2 mps 742 mmHg 34%
    17:00 +26°C° 0 mm 2 mps 742 mmHg 43%
    18:00 +24°C° 0 mm 1 mps 743 mmHg 52%
    19:00 +21°C° 0 mm 1 mps 743 mmHg 62%
    20:00 +19°C° 0 mm 1 mps 743 mmHg 69%
    21:00 +16°C° 0 mm 1 mps 743 mmHg 76%
    22:00 +14°C° 0 mm 0 mps 743 mmHg 83%
    23:00 +13°C° 0 mm 0 mps 743 mmHg 86%

    31 January, Friday

    Time Temperature Precipitation Wind Pressure Humidity
    00:00 +13°C° 0 mm 0 mps 743 mmHg 89%
    01:00 +12°C° 0 mm 0 mps 743 mmHg 93%
    02:00 +12°C° 0 mm 0 mps 743 mmHg 93%
    03:00 +12°C° 0 mm 0 mps 743 mmHg 94%
    04:00 +11°C° 0 mm 0 mps 743 mmHg 95%
    05:00 +13°C° 0 mm 0 mps 743 mmHg 87%
    06:00 +15°C° 0 mm 0 mps 743 mmHg 80%
    07:00 +17°C° 0 mm 0 mps 743 mmHg 72%
    08:00 +20°C° 0 mm 0 mps 742 mmHg 64%
    09:00 +24°C° 0 mm 1 mps 742 mmHg 56%
    10:00 +27°C° 0 mm 1 mps 742 mmHg 48%
    11:00 +28°C° 0 mm 1 mps 742 mmHg 45%
    12:00 +29°C° 0 mm 2 mps 741 mmHg 41%
    13:00 +30°C° 0 mm 2 mps 741 mmHg 38%
    14:00 +30°C° 0 mm 2 mps 741 mmHg 40%
    15:00 +30°C° 0 mm 2 mps 740 mmHg 41%
    16:00 +29°C° 0 mm 2 mps 740 mmHg 42%
    17:00 +27°C° 0 mm 2 mps 740 mmHg 53%
    18:00 +24°C° 0 mm 1 mps 741 mmHg 64%
    19:00 +22°C° 0 mm 1 mps 741 mmHg 75%
    20:00 +18°C° 0 mm 0 mps 741 mmHg 82%
    21:00 +16°C° 0 mm 0 mps 741 mmHg 89%
    22:00 +15°C° 0 mm 0 mps 741 mmHg 97%
    23:00 +14°C° 0 mm 0 mps 740 mmHg 97%

    1 February, Saturday

    Time Temperature Precipitation Wind Pressure Humidity
    00:00 +14°C° 0 mm 0 mps 740 mmHg 98%
    01:00 +13°C° 0 mm 0 mps 740 mmHg 98%
    02:00 +13°C° 0 mm 0 mps 740 mmHg 98%
    03:00 +13°C° 0 mm 0 mps 740 mmHg 98%
    04:00 +13°C° 0 mm 0 mps 740 mmHg 98%
    05:00 +14°C° 0 mm 0 mps 740 mmHg 97%
    06:00 +15°C° 0 mm 1 mps 740 mmHg 95%
    07:00 +16°C° 0 mm 1 mps 739 mmHg 93%
    08:00 +19°C° 0 mm 1 mps 739 mmHg 83%
    09:00 +19°C° 0 mm 2 mps 739 mmHg 73%
    10:00 +21°C° 0 mm 2 mps 739 mmHg 64%
    11:00 +23°C° 0 mm 2 mps 739 mmHg 62%
    12:00 +24°C° 0 mm 2 mps 739 mmHg 60%
    13:00 +24°C° 0 mm 3 mps 738 mmHg 58%
    14:00 +21°C° 2.4 mm 2 mps 739 mmHg 71%
    15:00 +18°C° 2.4 mm 2 mps 739 mmHg 85%
    16:00 +16°C° 2.4 mm 2 mps 739 mmHg 98%
    17:00 +15°C° 1 mm 1 mps 740 mmHg 98%
    18:00 +15°C° 1 mm 1 mps 741 mmHg 98%
    19:00 +13°C° 1 mm 0 mps 741 mmHg 99%
    20:00 +12°C° 0 mm 0 mps 742 mmHg 99%
    21:00 +11°C° 0 mm 0 mps 743 mmHg 99%
    22:00 +10°C° 0 mm 0 mps 743 mmHg 99%
    23:00 +10°C° 0 mm 0 mps 743 mmHg 99%

    2 February, Sunday

    Time Temperature Precipitation Wind Pressure Humidity
    00:00 +10°C° 0 mm 0 mps 743 mmHg 99%
    01:00 +9°C° 0 mm 0 mps 743 mmHg 99%
    02:00 +9°C° 0 mm 0 mps 743 mmHg 99%
    03:00 +9°C° 0 mm 0 mps 743 mmHg 99%
    04:00 +8°C° 0 mm 0 mps 743 mmHg 98%
    05:00 +9°C° 0 mm 0 mps 743 mmHg 96%
    06:00 +10°C° 0 mm 0 mps 743 mmHg 95%
    07:00 +11°C° 0 mm 0 mps 743 mmHg 93%
    08:00 +14°C° 0 mm 0 mps 743 mmHg 74%
    09:00 +19°C° 0 mm 1 mps 743 mmHg 56%
    10:00 +22°C° 0 mm 1 mps 743 mmHg 38%
    11:00 +23°C° 0 mm 1 mps 742 mmHg 35%
    12:00 +24°C° 0 mm 1 mps 742 mmHg 31%
    13:00 +25°C° 0 mm 2 mps 741 mmHg 28%
    14:00 +24°C° 0 mm 2 mps 741 mmHg 29%
    15:00 +24°C° 0 mm 2 mps 741 mmHg 31%
    16:00 +22°C° 0 mm 3 mps 741 mmHg 33%
    17:00 +20°C° 0 mm 2 mps 741 mmHg 41%
    18:00 +17°C° 0 mm 2 mps 742 mmHg 49%
    19:00 +15°C° 0 mm 1 mps 742 mmHg 56%
    20:00 +13°C° 0 mm 1 mps 742 mmHg 68%
    21:00 +11°C° 0 mm 1 mps 743 mmHg 79%
    22:00 +8°C° 0 mm 0 mps 743 mmHg 90%
    23:00 +8°C° 0 mm 0 mps 743 mmHg 93%
    Show more